Location: Warner Observatory
(35.1353°N, 89.5455°W)
Time: 21:26:55
(UTC-05:00)

Amateur Radio Satellites - All Passes

Search period start: 23 September 2014 20:56
Search period end: 24 September 2014 20:56
Location: Warner Observatory, 35.1353°N, 89.5455°W

Satellite Date Start Highest point End Downlink Frequencies (MHz)
Time Altitude Azimuth
SO-50 23 Sep 21:04:50 21:09:11 57° 116° (ESE) 21:13:39 436.795 FM
PCSat 23 Sep 21:18:05 21:23:29 71° 246° (WSW) 21:28:51 145.825 MHz
Oscar 11 23 Sep 21:32:58 21:37:03 41° 73° (ENE) 21:41:09 145.825 FM, Beacon 2401.500 USB
FUNcube-1 23 Sep 21:36:22 21:39:21 18° 67° (ENE) 21:42:22 145.950 - 145.970 MHz USB
UKube-1 23 Sep 21:54:02 21:58:21 77° 258° (WSW) 22:02:42 145.840 MHz, 145.915 MHz
ZACube-1 23 Sep 22:18:10 22:22:27 53° 74° (ENE) 22:26:53 437.345 MHz
UOSAT-12 23 Sep 22:18:11 22:21:55 25° 111° (ESE) 22:25:44 437.025 FM, 437.400 FM
HO-68 23 Sep 22:35:13 22:40:38 23° 265° (W) 22:46:05 435.675 MHz FM
Oscar 10/S400 23 Sep 22:36:27 23:15:40 66° 199° (SSW) 08:59:03 145.825 - 145.975 CW/USB, Beacon 145.810 USB
Sapphire 23 Sep 22:36:53 22:39:45 15° 256° (WSW) 22:42:38 437.095 MHz 1200 baud AX-25 AFSK
SO-50 23 Sep 22:47:27 22:50:07 15° 313° (NW) 22:52:49 436.795 FM
Oscar 11 23 Sep 23:10:59 23:13:22 14° 267° (W) 23:15:46 145.825 FM, Beacon 2401.500 USB
FUNcube-1 23 Sep 23:11:19 23:15:24 36° 262° (W) 23:19:35 145.950 - 145.970 MHz USB
PANSAT 23 Sep 23:34:26 23:37:21 21° 167° (SSE) 23:40:16 not established
ZACube-1 23 Sep 23:57:39 23:59:10 12° 269° (W) 00:00:42 437.345 MHz
UOSAT-12 23 Sep 23:57:49 00:01:55 31° 307° (NW) 00:06:06 437.025 FM, 437.400 FM
ISS 24 Sep 00:32:40 00:35:55 52° 134° (SE) 00:39:09 145.800 FM
Saudisat 1A 24 Sep 00:44:59 00:48:51 29° 53° (NE) 00:52:40 436.775 MHz
PANSAT 24 Sep 01:13:42 01:17:05 30° 179° (S) 01:20:27 not established
Oscar 19 24 Sep 01:43:04 01:47:15 25° 96° (E) 01:51:24 437.125 CW, 437.150 USB
AO-Echo 24 Sep 01:58:01 02:01:06 16° 94° (E) 02:04:13 ?
RS-15 24 Sep 02:01:20 02:09:03 22° 102° (ESE) 02:16:37 29.354 - 29.394 USB, Beacon 29.352 USB
ISS 24 Sep 02:10:33 02:12:49 17° 330° (NNW) 02:15:06 145.800 FM
JAS-1B 24 Sep 02:11:04 02:15:39 25° 97° (E) 02:20:23 435.800 - 435.900 CW/SSB
AO-27 24 Sep 02:13:22 02:17:12 20° 95° (E) 02:21:00 436.795 MHz FM
Oscar 16 24 Sep 02:22:00 02:27:08 65° 102° (ESE) 02:32:14 437.025 USB, Beacon 2401.1428
Saudisat 1A 24 Sep 02:24:42 02:28:16 24° 249° (WSW) 02:31:50 436.775 MHz
KITSAT 1 24 Sep 02:38:19 02:44:28 23° 45° (NE) 02:50:34 435.175 FM
PANSAT 24 Sep 02:53:47 02:56:49 22° 192° (SSW) 02:59:51 not established
ITAMSAT 1 24 Sep 03:15:18 03:20:33 86° 103° (ESE) 03:25:47 435.822 SSB
Uribyol 2 24 Sep 03:18:16 03:23:31 84° 284° (WNW) 03:28:44 436.500 FM
Oscar 19 24 Sep 03:22:00 03:26:34 33° 290° (WNW) 03:31:06 437.125 CW, 437.150 USB
Gurwin Techsat 1B 24 Sep 03:31:57 03:37:12 59° 101° (E) 03:42:25 435.225 FM
OPAL 24 Sep 03:34:48 03:37:17 14° 61° (ENE) 03:39:45 ?
AO-Echo 24 Sep 03:35:19 03:40:02 47° 287° (WNW) 03:44:52 ?
AO-27 24 Sep 03:51:56 03:56:48 41° 289° (WNW) 04:01:40 436.795 MHz FM
JAS-1B 24 Sep 04:01:20 04:06:24 35° 291° (WNW) 04:11:38 435.800 - 435.900 CW/SSB
Oscar 16 24 Sep 04:03:27 04:05:53 13° 297° (WNW) 04:08:18 437.025 USB, Beacon 2401.1428
TMSAT-1 24 Sep 04:05:46 04:11:06 90° 284° (WNW) 04:16:24 436.925 FM
RS-15 24 Sep 04:08:57 04:20:04 81° 300° (WNW) 04:31:03 29.354 - 29.394 USB, Beacon 29.352 USB
KITSAT 1 24 Sep 04:32:37 04:40:42 80° 245° (WSW) 04:48:45 435.175 FM
Uosat F 24 Sep 04:49:50 04:54:29 37° 99° (E) 04:59:07 435.120 FM
ITAMSAT 1 24 Sep 04:58:31 04:59:16 10° 299° (WNW) 05:00:01 435.822 SSB
OPAL 24 Sep 05:10:21 05:15:31 69° 256° (WSW) 05:20:44 ?
AO-7 24 Sep 05:11:56 05:20:11 67° 105° (ESE) 05:28:24 29.400 - 29.500 MHz
Gurwin Techsat 1B 24 Sep 05:13:34 05:16:38 16° 296° (WNW) 05:19:41 435.225 FM
SO-50 24 Sep 05:39:46 05:43:42 24° 51° (NE) 05:47:39 436.795 FM
Hamsat 24 Sep 05:58:08 06:01:08 19° 94° (E) 06:04:06 145.90 MHz
STRAND 1 24 Sep 06:00:58 06:04:40 21° 67° (ENE) 06:08:23 ?
JAS-2 24 Sep 06:20:40 06:26:56 51° 100° (E) 06:33:55 435.800 - 435.900 CW/SSB, 435.910 FM
RS-15 24 Sep 06:26:11 06:34:21 23° 325° (NW) 06:42:33 29.354 - 29.394 USB, Beacon 29.352 USB
Uosat F 24 Sep 06:29:13 06:33:00 22° 293° (WNW) 06:36:47 435.120 FM
KITSAT 1 24 Sep 06:32:03 06:34:49 12° 261° (W) 06:37:35 435.175 FM
UOSAT-12 24 Sep 06:52:01 06:53:46 12° 44° (NE) 06:55:30 437.025 FM, 437.400 FM
ISS 24 Sep 07:04:29 07:06:55 19° 31° (NNE) 07:09:20 145.800 FM
AO-7 24 Sep 07:05:55 07:12:16 25° 301° (WNW) 07:18:37 29.400 - 29.500 MHz
SO-67 24 Sep 07:12:44 07:14:46 15° 94° (E) 07:16:48 435.3500 MHz FM
SO-50 24 Sep 07:19:54 07:24:20 37° 247° (WSW) 07:28:47 436.795 FM
MaSat-1 24 Sep 07:29:10 07:34:09 82° 293° (WNW) 07:39:04 437.345 MHz
Hamsat 24 Sep 07:33:27 07:37:05 29° 288° (WNW) 07:40:41 145.90 MHz
STRAND 1 24 Sep 07:38:48 07:43:33 40° 261° (W) 07:48:20 ?
JAS-2 24 Sep 08:06:37 08:11:41 26° 292° (WNW) 08:17:13 435.800 - 435.900 CW/SSB, 435.910 FM
HO-68 24 Sep 08:21:37 08:22:47 10° 90° (E) 08:23:56 435.675 MHz FM
UOSAT-12 24 Sep 08:29:49 08:34:33 86° 242° (WSW) 08:39:11 437.025 FM, 437.400 FM
ISS 24 Sep 08:40:35 08:43:46 44° 227° (SW) 08:46:56 145.800 FM
SO-67 24 Sep 08:44:58 08:47:45 23° 288° (WNW) 08:50:31 435.3500 MHz FM
RS-15 24 Sep 08:49:51 08:52:58 11° 2° (N) 08:56:06 29.354 - 29.394 USB, Beacon 29.352 USB
UKube-1 24 Sep 09:46:07 09:49:35 23° 96° (E) 09:53:01 145.840 MHz, 145.915 MHz
Sapphire 24 Sep 09:50:45 09:52:36 12° 102° (ESE) 09:54:27 437.095 MHz 1200 baud AX-25 AFSK
HO-68 24 Sep 10:04:08 10:11:21 80° 105° (ESE) 10:18:32 435.675 MHz FM
ZACube-1 24 Sep 10:12:21 10:14:47 14° 92° (E) 10:17:11 437.345 MHz
PCSat 24 Sep 10:14:31 10:18:45 24° 106° (ESE) 10:23:00 145.825 MHz
Oscar 11 24 Sep 10:59:36 11:03:53 61° 285° (WNW) 11:08:08 145.825 FM, Beacon 2401.500 USB
RS-15 24 Sep 11:02:39 11:11:23 25° 38° (NE) 11:20:18 29.354 - 29.394 USB, Beacon 29.352 USB
FUNcube-1 24 Sep 11:03:21 11:07:53 55° 100° (E) 11:12:17 145.950 - 145.970 MHz USB
UKube-1 24 Sep 11:22:04 11:25:42 26° 290° (WNW) 11:29:19 145.840 MHz, 145.915 MHz
Sapphire 24 Sep 11:29:55 11:35:18 74° 297° (WNW) 11:40:44 437.095 MHz 1200 baud AX-25 AFSK
ZACube-1 24 Sep 11:46:59 11:51:23 45° 287° (WNW) 11:55:42 437.345 MHz
HO-68 24 Sep 11:53:45 11:58:12 18° 301° (WNW) 12:02:39 435.675 MHz FM
PCSat 24 Sep 11:56:50 12:01:52 40° 302° (WNW) 12:06:58 145.825 MHz
FUNcube-1 24 Sep 12:41:44 12:43:43 13° 295° (WNW) 12:45:41 145.950 - 145.970 MHz USB
JAS-1B 24 Sep 12:52:50 12:58:41 23° 66° (ENE) 13:03:53 435.800 - 435.900 CW/SSB
Oscar 19 24 Sep 12:56:54 13:01:12 27° 68° (ENE) 13:05:31 437.125 CW, 437.150 USB
Uribyol 2 24 Sep 12:57:42 12:59:21 12° 62° (ENE) 13:00:59 436.500 FM
AO-Echo 24 Sep 13:09:03 13:11:35 15° 66° (ENE) 13:14:08 ?
RS-15 24 Sep 13:14:12 13:25:26 87° 62° (ENE) 13:37:10 29.354 - 29.394 USB, Beacon 29.352 USB
Sapphire 24 Sep 13:18:45 13:19:39 10° 315° (NW) 13:20:33 437.095 MHz 1200 baud AX-25 AFSK
AO-27 24 Sep 13:28:38 13:32:37 23° 67° (ENE) 13:36:38 436.795 MHz FM
Oscar 16 24 Sep 13:35:38 13:40:47 69° 75° (ENE) 13:45:57 437.025 USB, Beacon 2401.1428
TMSAT-1 24 Sep 13:47:49 13:49:24 11° 62° (ENE) 13:51:00 436.925 FM
AO-7 24 Sep 14:20:51 14:24:02 13° 51° (NE) 14:27:13 29.400 - 29.500 MHz
ITAMSAT 1 24 Sep 14:30:08 14:35:17 87° 256° (WSW) 14:40:30 435.822 SSB
Uribyol 2 24 Sep 14:32:57 14:38:06 77° 257° (WSW) 14:43:18 436.500 FM
Oscar 19 24 Sep 14:35:49 14:40:23 31° 263° (W) 14:44:59 437.125 CW, 437.150 USB
JAS-1B 24 Sep 14:40:23 14:48:53 66° 257° (WSW) 14:55:59 435.800 - 435.900 CW/SSB
AO-Echo 24 Sep 14:45:23 14:49:56 49° 260° (W) 14:54:29 ?
Gurwin Techsat 1B 24 Sep 14:49:49 14:55:04 67° 74° (ENE) 15:00:20 435.225 FM
Saudisat 1A 24 Sep 14:49:54 14:52:26 15° 109° (ESE) 14:54:58 436.775 MHz
AO-27 24 Sep 15:07:09 15:11:53 36° 262° (W) 15:16:39 436.795 MHz FM
Oscar 16 24 Sep 15:18:49 15:20:33 12° 269° (W) 15:22:17 437.025 USB, Beacon 2401.1428
TMSAT-1 24 Sep 15:23:18 15:28:35 80° 257° (WSW) 15:33:54 436.925 FM
RS-15 24 Sep 15:28:58 15:36:26 21° 259° (W) 15:44:09 29.354 - 29.394 USB, Beacon 29.352 USB
Uosat F 24 Sep 16:00:06 16:04:38 37° 71° (ENE) 16:09:13 435.120 FM
AO-7 24 Sep 16:07:05 16:15:17 68° 69° (ENE) 16:23:29 29.400 - 29.500 MHz
Saudisat 1A 24 Sep 16:27:24 16:31:36 44° 303° (WNW) 16:35:50 436.775 MHz
Gurwin Techsat 1B 24 Sep 16:33:22 16:35:27 12° 269° (W) 16:37:31 435.225 FM
JAS-2 24 Sep 16:35:12 16:36:20 11° 61° (ENE) 16:37:29 435.800 - 435.900 CW/SSB, 435.910 FM
Hamsat 24 Sep 16:51:11 16:51:35 10° 65° (ENE) 16:51:59 145.90 MHz
KITSAT 1 24 Sep 17:04:40 17:10:10 20° 103° (ESE) 17:15:39 435.175 FM
OPAL 24 Sep 17:23:50 17:28:40 41° 101° (E) 17:33:24 ?
MaSat-1 24 Sep 17:25:35 17:29:01 70° 249° (WSW) 17:31:57 437.345 MHz
Uosat F 24 Sep 17:39:47 17:43:29 21° 265° (W) 17:47:13 435.120 FM
AO-7 24 Sep 18:02:25 18:08:32 23° 265° (W) 18:14:43 29.400 - 29.500 MHz
JAS-2 24 Sep 18:15:32 18:20:45 74° 258° (WSW) 18:25:58 435.800 - 435.900 CW/SSB, 435.910 FM
Hamsat 24 Sep 18:22:39 18:26:58 63° 259° (W) 18:31:17 145.90 MHz
KITSAT 1 24 Sep 18:56:38 19:04:42 74° 299° (WNW) 19:12:49 435.175 FM
OPAL 24 Sep 19:03:28 19:07:13 21° 296° (WNW) 19:10:55 ?
PCSat 24 Sep 19:06:50 19:08:42 12° 46° (NE) 19:10:35 145.825 MHz
SO-67 24 Sep 19:13:53 19:17:17 61° 77° (ENE) 19:20:42 435.3500 MHz FM
STRAND 1 24 Sep 19:52:11 19:57:21 89° 104° (ESE) 20:02:30 ?
SO-50 24 Sep 19:53:39 19:55:52 14° 108° (ESE) 19:58:06 436.795 FM
Sapphire 24 Sep 20:21:15 20:26:26 44° 59° (ENE) 20:31:36 437.095 MHz 1200 baud AX-25 AFSK
HO-68 24 Sep 20:29:14 20:35:51 43° 67° (ENE) 20:42:30 435.675 MHz FM
UKube-1 24 Sep 20:39:52 20:42:08 14° 66° (ENE) 20:44:24 145.840 MHz, 145.915 MHz
